Time,TemperatureF,DewpointF,PressureIn,WindDirection,WindDirectionDegrees,WindSpeedMPH,WindSpeedGustMPH,Humidity,HourlyPrecipIn,Conditions,Clouds,dailyrainin,SoftwareType,DateUTC
2013-01-10 00:00:00,51.4,34.9,30.46,SW,232,0.0,3.0,53,0.00,,---,0.00,VWS V15.00,2013-01-10 05:00:00,
2013-01-10 00:01:00,52.3,35.7,30.44,NNE,12,0.0,6.0,53,0.00,,---,0.01,VWS V14.01,2013-01-10 05:01:00,
2013-01-10 00:03:00,52.4,35.8,30.44,NNE,12,0.0,1.0,53,0.00,,---,0.00,VWS V14.01,2013-01-10 05:03:00,
2013-01-10 00:18:00,52.3,35.2,30.44,WNW,294,0.0,3.0,52,0.00,,---,0.00,VWS V14.01,2013-01-10 05:18:00,
2013-01-10 00:30:00,48.7,35.0,30.46,NNW,341,0.0,2.0,59,0.00,,---,0.00,VWS V15.00,2013-01-10 05:30:00,
2013-01-10 00:31:00,52.2,34.6,30.44,NW,315,1.0,5.0,51,0.00,,---,0.00,VWS V14.01,2013-01-10 05:31:00,
2013-01-10 00:33:00,52.2,34.6,30.44,NW,316,0.0,1.0,51,0.00,,---,0.00,VWS V14.01,2013-01-10 05:33:00,
2013-01-10 00:48:00,52.2,35.1,30.45,SW,232,1.0,3.0,52,0.00,,---,0.00,VWS V14.01,2013-01-10 05:48:00,
2013-01-10 01:00:00,51.4,34.9,30.46,SW,232,0.0,3.0,53,0.00,,---,0.00,VWS V14.01,2013-01-10 06:00:00,
2013-01-10 01:18:00,50.0,34.9,30.46,NW,325,0.0,2.0,56,0.00,,---,0.00,VWS V14.01,2013-01-10 06:18:00,
2013-01-10 01:30:00,50.1,35.9,30.48,North,355,0.0,4.0,58,0.00,,---,0.00,VWS V15.00,2013-01-10 06:30:00,
2013-01-10 01:31:00,48.7,35.0,30.46,NNW,341,0.0,2.0,59,0.00,,---,0.00,VWS V14.01,2013-01-10 06:31:00,
2013-01-10 01:48:00,47.9,34.3,30.47,WNW,290,0.0,3.0,59,0.00,,---,0.00,VWS V14.01,2013-01-10 06:48:00,
2013-01-10 02:00:00,50.0,36.2,30.48,NE,52,0.0,3.0,59,0.00,,---,0.00,VWS V15.00,2013-01-10 07:00:00,
2013-01-10 02:01:00,48.5,34.8,30.48,ESE,103,0.0,6.0,59,0.00,,---,0.00,VWS V14.01,2013-01-10 07:01:00,
2013-01-10 02:18:00,49.7,35.5,30.48,North,11,0.0,3.0,58,0.00,,---,0.00,VWS V14.01,2013-01-10 07:18:00,
2013-01-10 02:30:00,49.3,35.6,30.50,NE,34,0.0,5.0,59,0.00,,---,0.00,VWS V15.00,2013-01-10 07:30:00,
2013-01-10 02:31:00,50.1,35.9,30.48,North,355,0.0,4.0,58,0.00,,---,0.00,VWS V14.01,2013-01-10 07:31:00,
2013-01-10 02:48:00,49.9,36.2,30.48,NNW,342,0.0,3.0,59,0.00,,---,0.00,VWS V14.01,2013-01-10 07:48:00,
2013-01-10 03:00:00,47.9,35.1,30.49,NNE,26,0.0,3.0,61,0.00,,---,0.00,VWS V15.00,2013-01-10 08:00:00,
2013-01-10 03:01:00,50.0,36.2,30.48,NE,52,0.0,3.0,59,0.00,,---,0.00,VWS V14.01,2013-01-10 08:01:00,
2013-01-10 03:18:00,49.5,35.8,30.48,North,355,0.0,5.0,59,0.00,,---,0.00,VWS V14.01,2013-01-10 08:18:00,
2013-01-10 03:30:00,46.8,34.9,30.50,NNW,339,0.0,2.0,63,0.00,,---,0.00,VWS V15.00,2013-01-10 08:30:00,
2013-01-10 03:31:00,49.3,35.6,30.50,NE,34,0.0,5.0,59,0.00,,---,0.00,VWS V14.01,2013-01-10 08:31:00,
2013-01-10 03:48:00,48.2,35.4,30.49,West,279,0.0,2.0,61,0.00,,---,0.00,VWS V14.01,2013-01-10 08:48:00,
2013-01-10 04:00:00,43.1,34.3,30.52,NNW,338,0.0,0.0,71,0.00,,---,0.00,VWS V15.00,2013-01-10 09:00:00,
2013-01-10 04:01:00,47.9,35.1,30.49,NNE,26,0.0,3.0,61,0.00,,---,0.00,VWS V14.01,2013-01-10 09:01:00,
2013-01-10 04:18:00,47.6,35.2,30.50,NE,48,1.0,2.0,62,0.00,,---,0.00,VWS V14.01,2013-01-10 09:18:00,
2013-01-10 04:30:00,40.4,33.5,30.53,NNW,338,0.0,1.0,76,0.00,,---,0.00,VWS V15.00,2013-01-10 09:30:00,
2013-01-10 04:31:00,46.8,34.9,30.50,NNW,339,0.0,2.0,63,0.00,,---,0.00,VWS V14.01,2013-01-10 09:31:00,
2013-01-10 04:48:00,44.6,34.7,30.51,NNW,339,0.0,0.0,68,0.00,,---,0.00,VWS V14.01,2013-01-10 09:48:00,
2013-01-10 05:00:00,40.2,33.2,30.54,NNW,338,0.0,0.0,76,0.00,,---,0.00,VWS V15.00,2013-01-10 10:00:00,
2013-01-10 05:01:00,43.1,34.3,30.52,NNW,338,0.0,0.0,71,0.00,,---,0.00,VWS V14.01,2013-01-10 10:01:00,
2013-01-10 05:18:00,41.3,34.0,30.53,NNW,338,0.0,0.0,75,0.00,,---,0.00,VWS V14.01,2013-01-10 10:18:00,
2013-01-10 05:30:00,40.4,33.5,30.53,NNW,338,0.0,1.0,76,0.00,,---,0.00,VWS V14.01,2013-01-10 10:30:00,
2013-01-10 05:48:00,40.2,33.6,30.54,NNW,338,0.0,0.0,77,0.00,,---,0.00,VWS V14.01,2013-01-10 10:48:00,
2013-01-10 06:00:00,38.2,32.3,30.56,NNW,338,0.0,0.0,79,0.00,,---,0.00,VWS V15.00,2013-01-10 11:00:00,
2013-01-10 06:01:00,40.2,33.2,30.54,NNW,338,0.0,0.0,76,0.00,,---,0.00,VWS V14.01,2013-01-10 11:01:00,
2013-01-10 06:18:00,40.1,33.5,30.55,NNW,338,0.0,0.0,77,0.00,,---,0.00,VWS V14.01,2013-01-10 11:18:00,
2013-01-10 06:30:00,37.5,31.6,30.58,NNW,339,0.0,0.0,79,0.00,,---,0.00,VWS V15.00,2013-01-10 11:30:00,
2013-01-10 06:31:00,39.7,33.4,30.56,NNW,339,0.0,0.0,78,0.00,,---,0.00,VWS V14.01,2013-01-10 11:31:00,
2013-01-10 06:48:00,38.8,32.9,30.56,NNW,339,0.0,0.0,79,0.00,,---,0.00,VWS V14.01,2013-01-10 11:48:00,
2013-01-10 07:00:00,39.0,32.1,30.60,NE,54,0.0,1.0,76,0.00,,---,0.00,VWS V15.00,2013-01-10 12:00:00,
2013-01-10 07:01:00,38.2,32.3,30.56,NNW,338,0.0,0.0,79,0.00,,---,0.00,VWS V14.01,2013-01-10 12:01:00,
2013-01-10 07:18:00,37.5,32.2,30.57,NNW,339,0.0,0.0,81,0.00,,---,0.00,VWS V14.01,2013-01-10 12:18:00,
2013-01-10 07:30:00,44.0,33.0,30.62,North,349,0.0,5.0,65,0.00,,---,0.00,VWS V15.00,2013-01-10 12:30:00,
2013-01-10 07:31:00,37.5,31.6,30.58,NNW,339,0.0,0.0,79,0.00,,---,0.00,VWS V14.01,2013-01-10 12:31:00,
2013-01-10 07:48:00,38.2,31.3,30.59,NE,54,0.0,1.0,76,0.00,,---,0.00,VWS V14.01,2013-01-10 12:48:00,
2013-01-10 08:00:00,39.0,32.1,30.60,NE,54,0.0,1.0,76,0.00,,---,0.00,VWS V14.01,2013-01-10 13:00:00,
2013-01-10 08:19:00,41.7,32.3,30.61,ENE,67,0.0,5.0,69,0.00,,---,0.00,VWS V14.01,2013-01-10 13:19:00,
2013-01-10 08:30:00,47.5,33.9,30.64,NE,43,2.0,3.0,59,0.00,,---,0.00,VWS V15.00,2013-01-10 13:30:00,
2013-01-10 08:31:00,44.0,33.0,30.62,North,349,0.0,5.0,65,0.00,,---,0.00,VWS V14.01,2013-01-10 13:31:00,
2013-01-10 08:49:00,45.6,33.3,30.62,NNE,22,0.0,4.0,62,0.00,,---,0.00,VWS V14.01,2013-01-10 13:49:00,
2013-01-10 09:00:00,49.0,34.0,30.65,North,350,1.0,5.0,56,0.00,,---,0.00,VWS V15.00,2013-01-10 14:00:00,
2013-01-10 09:01:00,46.4,32.9,30.63,WNW,296,0.0,4.0,59,0.00,,---,0.00,VWS V14.01,2013-01-10 14:01:00,
2013-01-10 09:19:00,46.7,33.6,30.64,NW,317,0.0,3.0,60,0.00,,---,0.00,VWS V14.01,2013-01-10 14:19:00,
2013-01-10 09:30:00,49.9,34.4,30.65,West,272,2.0,6.0,55,0.00,,---,0.00,VWS V15.00,2013-01-10 14:30:00,
2013-01-10 09:31:00,47.5,33.9,30.64,NE,43,2.0,3.0,59,0.00,,---,0.00,VWS V14.01,2013-01-10 14:31:00,
2013-01-10 09:49:00,48.7,34.2,30.65,ENE,59,2.0,3.0,57,0.00,,---,0.00,VWS V14.01,2013-01-10 14:49:00,
2013-01-10 10:00:00,49.0,34.0,30.65,North,350,1.0,5.0,56,0.00,,---,0.00,VWS V14.01,2013-01-10 15:00:00,
2013-01-10 10:19:00,49.9,34.4,30.65,WNW,284,2.0,6.0,55,0.00,,---,0.00,VWS V14.01,2013-01-10 15:19:00,
2013-01-10 10:30:00,49.9,34.4,30.65,West,272,2.0,6.0,55,0.00,,---,0.00,VWS V14.01,2013-01-10 15:30:00,
2013-01-10 10:49:00,50.3,34.3,30.65,West,270,0.0,5.0,54,0.00,,---,0.00,VWS V14.01,2013-01-10 15:49:00,
2013-01-10 11:00:00,52.5,34.9,30.61,West,277,1.0,5.0,51,0.00,,---,0.00,VWS V15.00,2013-01-10 16:00:00,
2013-01-10 11:01:00,51.0,35.0,30.64,WSW,258,1.0,5.0,54,0.00,,---,0.00,VWS V14.01,2013-01-10 16:01:00,
2013-01-10 11:19:00,51.5,34.5,30.63,West,273,3.0,5.0,52,0.00,,---,0.00,VWS V14.01,2013-01-10 16:19:00,
2013-01-10 11:30:00,51.6,34.6,30.63,NE,40,0.0,5.0,52,0.00,,---,0.00,VWS V14.01,2013-01-10 16:30:00,
2013-01-10 11:49:00,52.7,34.6,30.61,East,79,5.0,5.0,50,0.00,,---,0.00,VWS V14.01,2013-01-10 16:49:00,
2013-01-10 12:00:00,54.2,34.4,30.58,West,272,2.0,5.0,47,0.00,,---,0.00,VWS V15.00,2013-01-10 17:00:00,
2013-01-10 12:01:00,52.5,34.9,30.61,West,277,1.0,5.0,51,0.00,,---,0.00,VWS V14.01,2013-01-10 17:01:00,
2013-01-10 12:19:00,52.9,35.8,30.59,North,9,0.0,7.0,52,0.00,,---,0.00,VWS V14.01,2013-01-10 17:19:00,
2013-01-10 12:30:00,54.4,34.6,30.57,NE,50,2.0,5.0,47,0.00,,---,0.00,VWS V15.00,2013-01-10 17:30:00,
2013-01-10 12:31:00,53.5,35.3,30.58,NW,304,0.0,7.0,50,0.00,,---,0.00,VWS V14.01,2013-01-10 17:31:00,
2013-01-10 12:49:00,54.0,34.8,30.58,North,360,0.0,5.0,48,0.00,,---,0.00,VWS V14.01,2013-01-10 17:49:00,
2013-01-10 13:00:00,55.3,35.4,30.57,NW,325,0.0,6.0,47,0.00,,---,0.00,VWS V15.00,2013-01-10 18:00:00,
2013-01-10 13:01:00,54.2,34.4,30.58,West,272,2.0,5.0,47,0.00,,---,0.00,VWS V14.01,2013-01-10 18:01:00,
2013-01-10 13:19:00,54.6,34.2,30.57,West,261,1.0,5.0,46,0.00,,---,0.00,VWS V14.01,2013-01-10 18:19:00,
2013-01-10 13:30:00,55.8,34.2,30.55,West,273,0.0,4.0,44,0.00,,---,0.00,VWS V15.00,2013-01-10 18:30:00,
2013-01-10 13:31:00,54.4,34.6,30.57,NE,50,2.0,5.0,47,0.00,,---,0.00,VWS V14.01,2013-01-10 18:31:00,
2013-01-10 13:49:00,55.0,34.6,30.57,North,350,0.0,6.0,46,0.00,,---,0.00,VWS V14.01,2013-01-10 18:49:00,
2013-01-10 14:00:00,55.7,34.7,30.56,North,350,0.0,4.0,45,0.00,,---,0.00,VWS V15.00,2013-01-10 19:00:00,
2013-01-10 14:01:00,55.3,35.4,30.57,NW,325,0.0,6.0,47,0.00,,---,0.00,VWS V14.01,2013-01-10 19:01:00,
2013-01-10 14:19:00,55.9,35.4,30.56,East,82,1.0,4.0,46,0.00,,---,0.00,VWS V14.01,2013-01-10 19:19:00,
2013-01-10 14:30:00,55.8,34.2,30.56,North,360,0.0,4.0,44,0.00,,---,0.00,VWS V15.00,2013-01-10 19:30:00,
2013-01-10 14:31:00,55.8,34.2,30.55,West,273,0.0,4.0,44,0.00,,---,0.00,VWS V14.01,2013-01-10 19:31:00,
2013-01-10 14:49:00,55.5,34.5,30.55,NE,53,2.0,4.0,45,0.00,,---,0.00,VWS V14.01,2013-01-10 19:49:00,
2013-01-10 15:00:00,54.4,33.5,30.56,NE,49,0.0,3.0,45,0.00,,---,0.00,VWS V15.00,2013-01-10 20:00:00,
2013-01-10 15:01:00,55.7,34.7,30.56,North,350,0.0,4.0,45,0.00,,---,0.00,VWS V14.01,2013-01-10 20:01:00,
2013-01-10 15:19:00,55.7,35.3,30.56,NE,41,0.0,3.0,46,0.00,,---,0.00,VWS V14.01,2013-01-10 20:19:00,
2013-01-10 15:30:00,53.5,34.3,30.56,NE,49,0.0,0.0,48,0.00,,---,0.00,VWS V15.00,2013-01-10 20:30:00,
2013-01-10 15:31:00,55.8,34.2,30.56,North,360,0.0,4.0,44,0.00,,---,0.00,VWS V14.01,2013-01-10 20:31:00,
2013-01-10 15:49:00,55.1,34.2,30.56,NE,49,0.0,3.0,45,0.00,,---,0.00,VWS V14.01,2013-01-10 20:49:00,
2013-01-10 16:00:00,52.1,34.5,30.56,NE,49,0.0,0.0,51,0.00,,---,0.00,VWS V15.00,2013-01-10 21:00:00,
2013-01-10 16:01:00,54.4,33.5,30.56,NE,49,0.0,3.0,45,0.00,,---,0.00,VWS V14.01,2013-01-10 21:01:00,
2013-01-10 16:19:00,53.9,34.2,30.56,NE,49,0.0,0.0,47,0.00,,---,0.00,VWS V14.01,2013-01-10 21:19:00,
2013-01-10 16:30:00,50.4,36.6,30.55,NE,49,0.0,0.0,59,0.00,,---,0.00,VWS V15.00,2013-01-10 21:30:00,
2013-01-10 16:34:00,53.4,34.2,30.56,NE,49,0.0,0.0,48,0.00,,---,0.00,VWS V14.01,2013-01-10 21:34:00,
2013-01-10 16:49:00,52.7,34.6,30.56,NE,49,0.0,0.0,50,0.00,,---,0.00,VWS V14.01,2013-01-10 21:49:00,
2013-01-10 17:00:00,49.1,36.7,30.55,NE,49,0.0,0.0,62,0.00,,---,0.00,VWS V15.00,2013-01-10 22:00:00,
2013-01-10 17:01:00,52.1,34.5,30.56,NE,49,0.0,0.0,51,0.00,,---,0.00,VWS V14.01,2013-01-10 22:01:00,
2013-01-10 17:19:00,51.0,36.8,30.55,NE,49,0.0,0.0,58,0.00,,---,0.00,VWS V14.01,2013-01-10 22:19:00,
2013-01-10 17:30:00,48.2,36.6,30.56,NE,49,0.0,0.0,64,0.00,,---,0.00,VWS V15.00,2013-01-10 22:30:00,
2013-01-10 17:31:00,50.4,36.6,30.55,NE,49,0.0,0.0,59,0.00,,---,0.00,VWS V14.01,2013-01-10 22:31:00,
2013-01-10 17:49:00,49.4,36.1,30.55,NE,49,0.0,0.0,60,0.00,,---,0.00,VWS V14.01,2013-01-10 22:49:00,
2013-01-10 18:00:00,48.1,34.9,30.56,East,80,0.0,2.0,60,0.00,,---,0.00,VWS V15.00,2013-01-10 23:00:00,
2013-01-10 18:01:00,49.1,36.7,30.55,NE,49,0.0,0.0,62,0.00,,---,0.00,VWS V14.01,2013-01-10 23:01:00,
2013-01-10 18:19:00,48.6,36.6,30.56,NE,49,0.0,0.0,63,0.00,,---,0.00,VWS V14.01,2013-01-10 23:19:00,
2013-01-10 18:30:00,47.8,34.6,30.57,East,98,0.0,2.0,60,0.00,,---,0.00,VWS V15.00,2013-01-10 23:30:00,
2013-01-10 18:31:00,48.2,36.6,30.56,NE,49,0.0,0.0,64,0.00,,---,0.00,VWS V14.01,2013-01-10 23:31:00,
2013-01-10 18:49:00,47.6,36.4,30.56,NE,49,0.0,0.0,65,0.00,,---,0.00,VWS V14.01,2013-01-10 23:49:00,
2013-01-10 19:00:00,47.2,34.0,30.57,East,98,0.0,2.0,60,0.00,,---,0.00,VWS V15.00,2013-01-11 00:00:00,
2013-01-10 19:01:00,48.1,34.9,30.56,East,80,0.0,2.0,60,0.00,,---,0.00,VWS V14.01,2013-01-11 00:01:00,
2013-01-10 19:19:00,48.1,34.9,30.57,East,98,0.0,2.0,60,0.00,,---,0.00,VWS V14.01,2013-01-11 00:19:00,
2013-01-10 19:30:00,46.4,34.1,30.57,East,98,0.0,0.0,62,0.00,,---,0.00,VWS V15.00,2013-01-11 00:30:00,
2013-01-10 19:34:00,47.7,34.5,30.57,East,98,0.0,1.0,60,0.00,,---,0.00,VWS V14.01,2013-01-11 00:34:00,
2013-01-10 19:49:00,47.4,34.2,30.57,East,98,0.0,2.0,60,0.00,,---,0.00,VWS V14.01,2013-01-11 00:49:00,
2013-01-10 20:00:00,45.5,34.4,30.56,East,98,0.0,0.0,65,0.00,,---,0.00,VWS V15.00,2013-01-11 01:00:00,
2013-01-10 20:01:00,47.2,34.0,30.57,East,98,0.0,2.0,60,0.00,,---,0.00,VWS V14.01,2013-01-11 01:01:00,
2013-01-10 20:19:00,46.7,34.4,30.57,East,98,0.0,0.0,62,0.00,,---,0.00,VWS V14.01,2013-01-11 01:19:00,
2013-01-10 20:30:00,44.5,34.6,30.58,East,98,0.0,0.0,68,0.00,,---,0.00,VWS V15.00,2013-01-11 01:30:00,
2013-01-10 20:31:00,46.4,34.1,30.57,East,98,0.0,0.0,62,0.00,,---,0.00,VWS V14.01,2013-01-11 01:31:00,
2013-01-10 20:50:00,45.8,34.3,30.57,East,98,0.0,0.0,64,0.00,,---,0.00,VWS V14.01,2013-01-11 01:50:00,
2013-01-10 21:00:00,43.3,34.2,30.58,East,98,0.0,0.0,70,0.00,,---,0.00,VWS V15.00,2013-01-11 02:00:00,
2013-01-10 21:01:00,45.5,34.4,30.56,East,98,0.0,0.0,65,0.00,,---,0.00,VWS V14.01,2013-01-11 02:01:00,
2013-01-10 21:20:00,44.8,33.8,30.58,East,98,0.0,0.0,65,0.00,,---,0.00,VWS V14.01,2013-01-11 02:20:00,
2013-01-10 21:30:00,42.8,33.7,30.57,East,98,0.0,0.0,70,0.00,,---,0.00,VWS V15.00,2013-01-11 02:30:00,
2013-01-10 21:31:00,44.5,34.6,30.58,East,98,0.0,0.0,68,0.00,,---,0.00,VWS V14.01,2013-01-11 02:31:00,
2013-01-10 21:50:00,43.8,34.3,30.58,East,98,0.0,0.0,69,0.00,,---,0.00,VWS V14.01,2013-01-11 02:50:00,
2013-01-10 22:00:00,43.3,33.5,30.57,East,98,0.0,0.0,68,0.00,,---,0.00,VWS V15.00,2013-01-11 03:00:00,
2013-01-10 22:01:00,43.3,34.2,30.58,East,98,0.0,0.0,70,0.00,,---,0.00,VWS V14.01,2013-01-11 03:01:00,
2013-01-10 22:20:00,42.8,33.0,30.57,East,98,0.0,0.0,68,0.00,,---,0.00,VWS V14.01,2013-01-11 03:20:00,
2013-01-10 22:30:00,42.7,33.2,30.56,East,98,0.0,0.0,69,0.00,,---,0.00,VWS V15.00,2013-01-11 03:30:00,
2013-01-10 22:31:00,42.8,33.7,30.57,East,98,0.0,0.0,70,0.00,,---,0.00,VWS V14.01,2013-01-11 03:31:00,
2013-01-10 22:50:00,43.1,33.6,30.56,East,98,0.0,0.0,69,0.00,,---,0.00,VWS V14.01,2013-01-11 03:50:00,
2013-01-10 23:00:00,42.5,33.1,30.56,East,98,0.0,0.0,69,0.00,,---,0.00,VWS V15.00,2013-01-11 04:00:00,
2013-01-10 23:01:00,43.3,33.5,30.57,East,98,0.0,0.0,68,0.00,,---,0.00,VWS V14.01,2013-01-11 04:01:00,
2013-01-10 23:20:00,43.0,33.2,30.57,East,98,0.0,0.0,68,0.00,,---,0.00,VWS V14.01,2013-01-11 04:20:00,
2013-01-10 23:30:00,41.9,33.5,30.56,East,98,0.0,0.0,72,0.00,,---,0.00,VWS V15.00,2013-01-11 04:30:00,
2013-01-10 23:31:00,42.7,33.2,30.56,East,98,0.0,0.0,69,0.00,,---,0.00,VWS V14.01,2013-01-11 04:31:00,
2013-01-10 23:50:00,42.6,33.2,30.56,East,98,0.0,0.0,69,0.00,,---,0.00,VWS V14.01,2013-01-11 04:50:00,